Weather History for Stigler, OK

Change the Weather History Date:

Tuesday, January 22, 2013

  Actual Average (KJSV) Record (KJSV)
Temperature  
Mean Temperature 37 °F -  
Max Temperature 51 °F 51 °F 76 °F (1967)
Min Temperature 23 °F 29 °F 5 °F (1959)
Degree Days  
Heating Degree Days 28    
Moisture  
Dew Point 20 °F    
Average Humidity 55    
Maximum Humidity 80    
Minimum Humidity 30    
Precipitation  
Precipitation 0.00 in - - ()
Sea Level Pressure  
Sea Level Pressure 30.28 in    
Wind  
Wind Speed 7 mph (ESE)    
Max Wind Speed 15 mph    
Max Gust Speed 18 mph    
Visibility 10 miles    
Events      
Averages and records for this station are not official NWS values.
T = Trace of Precipitation, MM = Missing Value Source: NWS Daily Summary

Daily Weather History Graph

Daily Weather History Graph

Search for Another Location

Airport:

Trip Planner

Search our weather history database for the weather conditions in past years. The results will help you decide how hot, cold, wet, or windy it might be!

Date:

Astronomy

Jan. 22, 2013 Rise Set
Actual Time 7:25 AM CST 5:38 PM CST
Civil Twilight 6:58 AM CST 6:05 PM CST
Nautical Twilight 6:27 AM CST 6:36 PM CST
Astronomical Twilight 5:57 AM CST 7:07 PM CST
Moon 2:03 PM CST (1/22) 3:46 AM CST (1/22)
Length of Visible Light 11h 07m
Length of Day
10h 12m
Waxing Gibbous, 83% of the Moon is Illuminated
Jan 22
Waxing Gibbous
Jan 26
Full
Feb 3
Last Quarter
Feb 10
New
Feb 17
First Quarter

Hourly Weather History & Observations

Time (CST) Temp. Windchill Dew Point Humidity Pressure Visibility Wind Dir Wind Speed Gust Speed Precip Events Conditions
12:15 AM 26.6 °F 21.2 °F 17.6 °F 69% 30.30 in 10.0 mi South 4.6 mph - N/A   Scattered Clouds
12:35 AM 26.6 °F - 17.6 °F 69% 30.30 in 10.0 mi Calm Calm - N/A   Mostly Cloudy
12:55 AM 26.6 °F - 19.4 °F 74% 30.30 in 10.0 mi Calm Calm - N/A   Overcast
1:35 AM 24.8 °F - 19.4 °F 80% 30.30 in 10.0 mi Calm Calm - N/A   Overcast
1:55 AM 26.6 °F 22.6 °F 17.6 °F 69% 30.31 in 10.0 mi North 3.5 mph - N/A   Overcast
2:35 AM 26.6 °F - 19.4 °F 74% 30.30 in 10.0 mi Calm Calm - N/A   Overcast
2:55 AM 24.8 °F - 19.4 °F 80% 30.30 in 10.0 mi Calm Calm - N/A   Overcast
3:15 AM 24.8 °F - 19.4 °F 80% 30.29 in 10.0 mi Calm Calm - N/A   Overcast
3:35 AM 23.0 °F - 17.6 °F 80% 30.29 in 10.0 mi Calm Calm - N/A   Overcast
3:55 AM 26.6 °F 19.1 °F 19.4 °F 74% 30.29 in 10.0 mi ESE 6.9 mph - N/A   Overcast
4:15 AM 28.4 °F 22.2 °F 19.4 °F 69% 30.29 in 10.0 mi East 5.8 mph - N/A   Overcast
4:35 AM 26.6 °F 19.1 °F 19.4 °F 74% 30.29 in 10.0 mi ESE 6.9 mph - N/A   Overcast
4:55 AM 26.6 °F 20.0 °F 19.4 °F 74% 30.29 in 10.0 mi East 5.8 mph - N/A   Overcast
5:15 AM 28.4 °F 21.2 °F 19.4 °F 69% 30.31 in 10.0 mi ENE 6.9 mph - N/A   Overcast
5:35 AM 28.4 °F 21.2 °F 19.4 °F 69% 30.31 in 7.0 mi ESE 6.9 mph - N/A   Overcast
5:55 AM 28.4 °F 21.2 °F 19.4 °F 69% 30.31 in 10.0 mi SE 6.9 mph - N/A   Overcast
6:15 AM 28.4 °F 19.7 °F 19.4 °F 69% 30.32 in 8.0 mi ESE 9.2 mph - N/A   Overcast
6:35 AM 28.4 °F 19.7 °F 17.6 °F 64% 30.32 in 7.0 mi East 9.2 mph - N/A   Overcast
6:55 AM 28.4 °F 20.4 °F 19.4 °F 69% 30.32 in 9.0 mi ESE 8.1 mph - N/A   Mostly Cloudy
7:15 AM 28.4 °F 19.7 °F 19.4 °F 69% 30.33 in 10.0 mi East 9.2 mph - N/A   Scattered Clouds
7:35 AM 28.4 °F 19.7 °F 19.4 °F 69% 30.33 in 10.0 mi East 9.2 mph - N/A   Overcast
7:55 AM 30.2 °F 21.3 °F 19.4 °F 64% 30.33 in 9.0 mi ESE 10.4 mph - N/A   Overcast
8:15 AM 32.0 °F 23.6 °F 19.4 °F 60% 30.33 in 10.0 mi ESE 10.4 mph - N/A   Overcast
8:35 AM 32.0 °F 23.6 °F 19.4 °F 60% 30.33 in 10.0 mi ESE 10.4 mph - N/A   Overcast
8:55 AM 32.0 °F 23.0 °F 19.4 °F 60% 30.33 in 10.0 mi ESE 11.5 mph - N/A   Overcast
9:15 AM 32.0 °F 24.8 °F 21.2 °F 64% 30.35 in 9.0 mi East 8.1 mph - N/A   Overcast
9:35 AM 32.0 °F 24.8 °F 21.2 °F 64% 30.35 in 10.0 mi East 8.1 mph - N/A   Mostly Cloudy
9:55 AM 35.6 °F 28.6 °F 21.2 °F 56% 30.35 in 9.0 mi SE 9.2 mph - N/A   Partly Cloudy
10:15 AM 37.4 °F 30.8 °F 21.2 °F 52% 30.36 in 10.0 mi ESE 9.2 mph - N/A   Clear
10:35 AM 37.4 °F 30.8 °F 21.2 °F 52% 30.35 in 9.0 mi ESE 9.2 mph - N/A   Clear
10:55 AM 37.4 °F 30.8 °F 21.2 °F 52% 30.34 in 9.0 mi SE 9.2 mph - N/A   Clear
11:15 AM 39.2 °F 33.0 °F 19.4 °F 45% 30.32 in 9.0 mi SE 9.2 mph - N/A   Clear
11:35 AM 41.0 °F 36.4 °F 19.4 °F 42% 30.30 in 8.0 mi SSE 6.9 mph - N/A   Clear
11:55 AM 44.6 °F 40.2 °F 19.4 °F 37% 30.29 in 10.0 mi SSW 8.1 mph 16.1 mph N/A   Clear
12:15 PM 46.4 °F 42.4 °F 19.4 °F 34% 30.28 in 10.0 mi South 8.1 mph - N/A   Clear
12:35 PM 48.2 °F - 19.4 °F 32% 30.28 in 10.0 mi South 5.8 mph - N/A   Clear
12:55 PM 48.2 °F - 19.4 °F 32% 30.27 in 10.0 mi South 4.6 mph - N/A   Clear
1:15 PM 50.0 °F - 19.4 °F 30% 30.26 in 9.0 mi SE 5.8 mph - N/A   Clear
1:35 PM 50.0 °F - 19.4 °F 30% 30.25 in 9.0 mi Calm Calm - N/A   Clear
1:55 PM 51.8 °F - 21.2 °F 30% 30.25 in 10.0 mi South 3.5 mph - N/A   Clear
2:15 PM 50.0 °F - 23.0 °F 35% 30.25 in 9.0 mi ENE 11.5 mph - N/A   Clear
2:35 PM 50.0 °F - 21.2 °F 32% 30.25 in 9.0 mi East 10.4 mph - N/A   Clear
2:55 PM 50.0 °F - 21.2 °F 32% 30.24 in 9.0 mi East 10.4 mph - N/A   Clear
3:15 PM 50.0 °F - 21.2 °F 32% 30.23 in 9.0 mi East 11.5 mph - N/A   Clear
3:35 PM 50.0 °F - 21.2 °F 32% 30.23 in 9.0 mi East 10.4 mph - N/A   Clear
3:55 PM 50.0 °F - 23.0 °F 35% 30.23 in 10.0 mi ESE 10.4 mph - N/A   Clear
4:15 PM 50.0 °F - 23.0 °F 35% 30.22 in 10.0 mi ESE 10.4 mph 16.1 mph N/A   Clear
4:35 PM 48.2 °F - 23.0 °F 37% 30.22 in 10.0 mi ESE 13.8 mph - N/A   Clear
4:55 PM 46.4 °F 41.5 °F 23.0 °F 40% 30.22 in 9.0 mi East 10.4 mph 16.1 mph N/A   Clear
5:15 PM 44.6 °F 39.7 °F 23.0 °F 43% 30.22 in 10.0 mi East 9.2 mph - N/A   Clear
5:35 PM 44.6 °F 39.7 °F 23.0 °F 43% 30.22 in 10.0 mi ESE 9.2 mph - N/A   Clear
5:55 PM 41.0 °F 34.7 °F 23.0 °F 49% 30.22 in 10.0 mi East 10.4 mph - N/A   Clear
6:15 PM 41.0 °F 34.3 °F 23.0 °F 49% 30.23 in 10.0 mi ESE 11.5 mph - N/A   Clear
6:35 PM 41.0 °F 34.7 °F 23.0 °F 49% 30.22 in 10.0 mi ESE 10.4 mph - N/A   Partly Cloudy
6:55 PM 39.2 °F 31.6 °F 23.0 °F 52% 30.23 in 10.0 mi ESE 12.7 mph - N/A   Partly Cloudy
7:15 PM 39.2 °F 31.6 °F 21.2 °F 49% 30.23 in 10.0 mi ESE 12.7 mph - N/A   Clear
7:35 PM 39.2 °F 31.6 °F 21.2 °F 49% 30.24 in 10.0 mi ESE 12.7 mph - N/A   Scattered Clouds
7:55 PM 37.4 °F 28.9 °F 21.2 °F 52% 30.24 in 10.0 mi East 13.8 mph 18.4 mph N/A   Scattered Clouds
8:15 PM 37.4 °F 28.9 °F 21.2 °F 52% 30.25 in 10.0 mi ESE 13.8 mph - N/A   Mostly Cloudy
8:35 PM 37.4 °F 28.5 °F 19.4 °F 48% 30.25 in 10.0 mi ESE 15.0 mph - N/A   Mostly Cloudy
8:55 PM 37.4 °F 29.8 °F 21.2 °F 52% 30.25 in 10.0 mi East 11.5 mph - N/A   Mostly Cloudy
9:15 PM 35.6 °F 26.6 °F 21.2 °F 56% 30.25 in 10.0 mi ESE 13.8 mph - N/A   Mostly Cloudy
9:35 PM 35.6 °F 27.5 °F 21.2 °F 56% 30.25 in 10.0 mi ESE 11.5 mph - N/A   Mostly Cloudy
9:55 PM 35.6 °F 26.6 °F 21.2 °F 56% 30.26 in 10.0 mi East 13.8 mph - N/A   Mostly Cloudy
10:15 PM 35.6 °F 28.0 °F 21.2 °F 56% 30.27 in 9.0 mi East 10.4 mph - N/A   Mostly Cloudy
10:35 PM 33.8 °F 25.3 °F 21.2 °F 60% 30.27 in 10.0 mi East 11.5 mph - N/A   Overcast
10:55 PM 33.8 °F 25.3 °F 19.4 °F 56% 30.28 in 10.0 mi East 11.5 mph - N/A   Overcast
11:15 PM 33.8 °F 25.3 °F 21.2 °F 60% 30.28 in 10.0 mi ESE 11.5 mph - N/A   Overcast
11:35 PM 33.8 °F 25.3 °F 21.2 °F 60% 30.27 in 10.0 mi ESE 11.5 mph - N/A   Overcast
11:55 PM 32.0 °F 23.0 °F 21.2 °F 64% 30.28 in 10.0 mi East 11.5 mph - N/A   Mostly Cloudy